Location: Summit Observatory
(39.5293°N, 75.7290°W)
Time: 05:48:40
(UTC-04:00)

YUBILEINY - Visible Passes

Search period start: 24 April 2019 00:00
Search period end: 04 May 2019 00:00
Orbit: 1479 x 1507 km, 82.5° (Epoch: 23 April)

Date Brightness Start Highest point End Pass type
(mag) Time Alt. Az. Time Alt. Az. Time Alt. Az.
24 Apr ? 00:46:28 23° W 00:49:23 27° WNW 00:56:35 10° NNW visible
24 Apr ? 22:00:57 33° ESE 22:02:47 36° E 22:10:32 10° NNE visible
24 Apr ? 23:56:48 40° WSW 23:59:16 49° WNW 00:07:47 10° N visible
25 Apr ? 21:11:14 16° E 21:13:58 19° ENE 21:19:28 10° NE visible
25 Apr ? 23:07:05 54° SSW 23:09:31 85° W 23:18:26 10° N visible
26 Apr ? 01:02:57 11° W 01:07:42 17° WNW 01:13:06 10° NNW visible
26 Apr ? 22:17:21 41° SE 22:20:08 55° E 22:28:39 10° NNE visible
27 Apr ? 00:13:11 23° WSW 00:17:16 32° WNW 00:24:59 10° N visible
27 Apr ? 21:27:33 23° ESE 21:31:04 30° E 21:38:20 10° NNE visible
27 Apr ? 23:23:24 35° SW 23:27:17 58° WNW 23:36:00 10° N visible
28 Apr ? 20:37:59 10° ESE 20:42:20 15° ENE 20:46:42 10° NE visible
28 Apr ? 22:33:33 37° S 22:37:38 82° E 22:46:31 10° N visible
29 Apr ? 00:29:24 10° WSW 00:35:30 21° WNW 00:41:47 10° NNW visible
29 Apr ? 21:43:39 26° SE 21:48:20 46° E 21:56:36 10° NNE visible
29 Apr ? 23:39:29 19° SW 23:45:12 38° WNW 23:53:18 10° N visible
30 Apr ? 20:53:40 13° SE 20:59:22 25° E 21:06:01 10° NNE visible
30 Apr ? 22:49:30 24° SSW 22:55:19 68° W 23:04:09 10° N visible
01 May ? 00:50:25 10° W 00:53:58 13° WNW 00:57:33 10° NNW visible
01 May ? 21:59:26 21° S 22:05:47 70° E 22:14:34 10° NNE visible
01 May ? 23:56:25 10° WSW 00:03:20 25° WNW 00:10:19 10° NNW visible
02 May ? 21:09:16 12° SSE 21:16:35 39° E 21:24:29 10° NNE visible
02 May ? 23:05:05 11° SW 23:13:10 45° WNW 23:21:35 10° N visible
03 May ? 20:21:50 10° ESE 20:27:43 20° E 20:33:35 10° NE visible
03 May ? 22:14:47 11° S 22:23:23 80° W 22:32:17 10° N visible
